Regional Weather Roundup
Issued by NWS

Home | Current Version | Previous Version | Graphics & Text | Print | Product List | Glossary On
Versions: 1 2 3 4 5 6 7 8 9 10 11 12 13 14 15 16 17 18 19 20 21 22 23 24 25 26 27 28 29 30 31 32 33 34 35 36 37 38 39 40 41 42 43 44 45 46 47 48 49 50
517
ASUS45 KTFX 100710
RWRMT
MONTANA REGIONAL WEATHER ROUNDUP
NATIONAL WEATHER SERVICE GREAT FALLS MT
1200 AM MST WED FEB 10 2016

NOTE: "FAIR" INDICATES FEW OR NO CLOUDS BELOW 12000 FEET WITH NO
SIGNIFICANT WEATHER AND/OR OBSTRUCTIONS TO VISIBILITY.

MTZ001>007-043-100800-
WEST OF THE DIVIDE

CITY           SKY/WX    TMP DP  RH WIND       PRES   REMARKS
KALISPELL      CLEAR     21  19  92 CALM      30.24F FOG
MISSOULA       FOG       24  23  96 CALM      30.30R VSB 3/4
BUTTE          CLOUDY    14  11  87 SE5       30.28F
MULLAN PASS    CLEAR     40  26  57 S5        30.24F
ANACONDA         N/A     27  19  74 SW3       30.26F
DEER LODGE       N/A     27  21  80 CALM      30.27F
HAMILTON         N/A     30  27  86 CALM      30.27S
LIBBY            N/A     25  25 100 CALM      30.26S
PLAINS           N/A     28  23  81 CALM      30.24F
$$

MTZ008-052>055-100800-
SOUTHWEST MONTANA

CITY           SKY/WX    TMP DP  RH WIND       PRES   REMARKS
BOZEMAN        CLOUDY    22  16  78 S5        30.25F
DILLON         CLOUDY    31  22  69 SW17      30.28F WCI  19
THREE FORKS      N/A     23  23 100 MISG      30.20F
TWIN BRIDGES     N/A     25  16  68 SE7       30.23F WCI  17
$$

MTZ009-010-012-014-046-048-049-054-100800-
EAST SLOPES AND CENTRAL MONTANA

CITY           SKY/WX    TMP DP  RH WIND       PRES   REMARKS
CUT BANK       MOCLDY    49  28  44 W23       30.02F
GREAT FALLS    CLOUDY    44  22  41 SW16      30.06F
MALMSTROM AFB  CLOUDY    42  22  44 SW13      30.07F
HELENA         CLOUDY    30  26  85 W5        30.20F
CHOTEAU          N/A     55  19  24 NW8G17    30.06F
CONRAD           N/A     52  27  38 W12       30.05F
$$

MTZ011-013-016-021-045-047-050-051-100800-
NORTH CENTRAL MONTANA

CITY           SKY/WX    TMP DP  RH WIND       PRES   REMARKS
HAVRE          PTCLDY    39  25  57 W12       29.98S WCI  32
LEWISTOWN      CLOUDY    39  23  52 SW12      30.05F WCI  32
CHINOOK          N/A     43  25  49 W3        29.96S
$$

MTZ017>020-022>027-061-062-100800-
NORTHEAST MONTANA

CITY           SKY/WX    TMP DP  RH WIND       PRES   REMARKS
GLASGOW        CLOUDY    37  29  72 NW5       29.89F
JORDAN           N/A     30  26  85 W7        29.93F WCI  23
SIDNEY         MOCLDY    27  21  80 S7        29.90F WCI  19
WOLF POINT     CLOUDY    30  27  88 SW6       29.91F WCI  24
PLENTYWOOD       N/A     28  23  80 E5        29.87F
POPLAR           N/A     32  28  86 W5        29.90F
SCOBEY           N/A     29  22  75 SE1       29.86F
$$

MTZ028>42-056>058-100800-
SOUTHCENTRAL AND SOUTHEAST MONTANA

CITY           SKY/WX    TMP DP  RH WIND       PRES   REMARKS
BAKER          CLEAR     32  25  75 W6        29.94F WCI  26
BILLINGS       CLOUDY    44  22  41 SW25      30.05F
LIVINGSTON     CLOUDY    48  21  34 SW30      30.17F
MILES CITY     CLOUDY    33  26  75 S6        29.96F WCI  28
EKALAKA          N/A     42  24  49 S6        29.94F
FORSYTH          N/A     41  25  52 SW9       29.97F
LAUREL           N/A     42  20  41 CALM      30.06F
ROUNDUP          N/A     43  19  38 S3        29.94F
$$

REGIONAL REPORTS...DAKOTAS

CITY           SKY/WX    TMP DP  RH WIND       PRES   REMARKS
WILLISTON      PTCLDY    28  23  81 SW3       29.89F
MINOT          LGT SNOW  19  12  74 E13       29.97F VSB 1   WCI   6
DICKINSON      PTCLDY    32  25  75 W8        29.88F WCI  25
BEACH            N/A     36  30  80 W7        29.93F WCI  30
CROSBY           N/A     25  25 100 E7        29.89F WCI  17
TIOGA          CLOUDY    28  27  93 SE6       29.93F WCI  22
WATFORD CITY     N/A     28  25  86 CALM      29.89F
BISMARCK       CLOUDY    28  20  71 E16       29.99F WCI  16
GRAND FORKS    CLOUDY     5  -4  66 N7        30.20F WCI  -7
FARGO          CLOUDY     4  -2  76 NE5       30.18F
BUFFALO SD       N/A     35  26  69 W14       29.87F WCI  26
RAPID CITY     CLEAR     28  24  85 NW3       29.98F
$$

REGIONAL REPORTS...WYOMING/IDAHO/WASHINGTON

CITY           SKY/WX    TMP DP  RH WIND       PRES   REMARKS
GILLETTE       CLEAR     40  24  53 SW15      30.06F
SHERIDAN       CLEAR     31  20  63 S3        30.06F
BUFFALO WY     CLOUDY    41  19  41 CALM      30.09F
CODY           CLOUDY    52  16  24 W12G21    30.17S
YELLOWSTONE LA   N/A     11   7  84 CALM      30.43S
IDAHO FALLS    FOG       14  11  87 NE3       30.46S VSB 1/2
SALMON         CLOUDY     9   9 100 SE3       30.44S
BOISE          PTCLDY    30  28  92 CALM      30.43F
SPOKANE        PTCLDY    34  30  85 CALM      30.24S
$$

REGIONAL REPORTS...ALBERTA

CITY           SKY/WX    TMP DP  RH WIND       PRES   REMARKS
EDMONTON       CLEAR     34  27  75 NW8       29.99R WCI  27
CALGARY        CLEAR     39  18  41 N5        29.98S
LETHBRIDGE     CLEAR     52  28  40 W21G29    29.97S
MEDICINE HAT   CLEAR     37  30  75 S9        29.93S WCI  31
WATERTON GATE    N/A     52  25  35 SW24G39     N/A
CARDSTON         N/A     55  21  26 W15G29      N/A
ONEFOUR          N/A     45  27  49 NW16        N/A
$$

REGIONAL REPORTS...SASKATCHEWAN

CITY           SKY/WX    TMP DP  RH WIND       PRES   REMARKS
SWIFT CURRENT  CLEAR     37  28  70 W14       29.84F WCI  29
SASKATOON      CLOUDY    21  21 100 VRB2      29.86S
CYPRESS HILLS    N/A     46  18  31 NW9         N/A
VAL MARIE        N/A     36  28  75 N9          N/A  WCI  29
ROCKGLEN         N/A     39  30  70 W14         N/A  WCI  31
$$




USA.gov is the U.S. government's official web portal to all federal, state and local government web resources and services.